Flag for Finland Weather past 2 weeks in Tampere, Finland

Now
37 °F

Light rain. Partly cloudy.


Feels Like: 29 °F
Forecast: 36 / 39 °F
Wind: 13 mph from Southeast

Location: Tampere / Pirkkala

Current Time: Mar 30, 2015 at 12:20:08 AM

Latest Report: Mar 29, 2015 at 11:50 PM


Visibility: N/A

Pressure: 29.27 "Hg

Humidity: 93%

Dew point: 36 °F

Location of TampereLocation

Historic Weather in Tampere — Graph

°F

Tampere temperature yesterday

Maximum temperature yesterday: 37 °F (at 2:50 PM)
Minimum temperature yesterday: 32 °F (at 2:20 AM)
Average temperature yesterday: 35 °F

Past Weeks' High & Low Weather Summary

 TemperatureHumidityPressure
High54 °F (Mar 16, 2:50 PM)100% (Mar 16, 1:50 AM)31.04 "Hg (Mar 16, 1:50 AM)
Low9 °F (Mar 22, 5:20 AM)19% (Mar 16, 1:50 PM)29.21 "Hg (Mar 24, 1:20 AM)
Average33 °F68%30.18 "Hg
* Reported Mar 14 10:20 PM — Mar 29 11:20 PM, Tampere, Weather by CustomWeather, © 2015

Note: Actual official high and low records may vary slightly from our data, if they occured in-between our weather recording intervals... More about our weather records

Advertising

Tampere weather history for previous 24 hours

 ConditionsComfort  
Time TempWeatherWind HumidityBarometerVisibility
11:20 PM
Sun, Mar 29
37 °FSprinkles. Mostly cloudy.14 mph93%29.30 "Hg6 mi
10:50 PM37 °FPassing clouds.10 mph93%29.33 "HgN/A
10:20 PM37 °FLight rain. Passing clouds.13 mph93%29.33 "Hg4 mi
9:50 PM37 °FPartly cloudy.12 mph93%29.36 "HgN/A
9:20 PM37 °FOvercast.12 mph87%29.36 "HgN/A
8:50 PM36 °FBroken clouds.12 mph93%29.39 "HgN/A
8:20 PM36 °FPartly sunny.12 mph93%29.39 "HgN/A
7:50 PM36 °FScattered clouds.13 mph93%29.42 "HgN/A
7:20 PM36 °FPartly sunny.13 mph93%29.42 "HgN/A
6:50 PM37 °FPartly sunny.10 mph81%29.45 "HgN/A
6:20 PM37 °FScattered clouds.10 mph81%29.45 "HgN/A
5:50 PM37 °FScattered clouds.12 mph81%29.47 "HgN/A
5:20 PM37 °FPartly sunny.15 mph81%29.50 "HgN/A
4:50 PM37 °FPartly sunny.13 mph75%29.50 "HgN/A
4:20 PM37 °FMostly cloudy.13 mph75%29.53 "HgN/A
3:50 PM37 °FBroken clouds.10 mph75%29.56 "HgN/A
3:20 PM37 °FMostly cloudy.10 mph81%29.56 "HgN/A
2:50 PM37 °FBroken clouds.12 mph81%29.59 "HgN/A
2:20 PM36 °FMore clouds than sun.12 mph87%29.59 "HgN/A
1:50 PM36 °FPartly sunny.13 mph87%29.59 "HgN/A
1:20 PM36 °FSprinkles. Partly sunny.13 mph93%29.62 "HgN/A
12:50 PM36 °FSprinkles. Broken clouds.12 mph87%29.62 "HgN/A
12:20 PM36 °FSprinkles. Broken clouds.8 mph93%29.62 "HgN/A
11:50 AM36 °FPartly sunny.9 mph87%29.65 "HgN/A
11:20 AM36 °FCloudy.13 mph93%29.65 "HgN/A
10:50 AM36 °FPartly sunny.9 mph93%29.68 "HgN/A
10:20 AM36 °FPartly sunny.8 mph93%29.68 "HgN/A
9:50 AM34 °FSnow flurries. Broken clouds.9 mph100%29.68 "HgN/A
9:20 AM34 °FLight rain. Mostly cloudy.9 mph100%29.71 "HgN/A
8:50 AM34 °FPartly sunny.7 mph93%29.71 "HgN/A
8:20 AM34 °FPartly sunny.6 mph100%29.71 "HgN/A
7:50 AM34 °FPassing clouds.8 mph93%29.71 "HgN/A
7:20 AM34 °FPassing clouds.8 mph93%29.71 "HgN/A
6:20 AM34 °FMostly cloudy.9 mph100%29.74 "HgN/A
5:50 AM32 °FPartly cloudy.9 mph100%29.74 "HgN/A
5:20 AM32 °FMostly cloudy.8 mph100%29.74 "HgN/A
4:50 AM32 °FSnow flurries. Partly cloudy.7 mph100%29.74 "HgN/A
4:20 AM32 °FLight rain. Passing clouds.6 mph100%29.77 "Hg4 mi
2:50 AM32 °FPassing clouds.6 mph100%29.77 "HgN/A
2:20 AM32 °FMostly cloudy.5 mph100%29.77 "HgN/A
1:50 AM34 °FPassing clouds.6 mph93%29.80 "HgN/A
1:20 AM34 °FLow clouds.5 mph100%29.80 "HgN/A
12:50 AM34 °FPartly cloudy.6 mph100%29.80 "HgN/A
12:20 AM34 °FPartly cloudy.6 mph100%29.80 "HgN/A
Weather by CustomWeather, © 2015

See weather overviewHow to use our weather pages